Skip Page Navigation
NASA JPL Caltech
NASA Logo - Jet Propulsion Laboratory + View the NASA Portal
+ Center for Near-Earth Object Studies
JPL Home Earth Solar System Stars & Galaxies Technology
JPL Solar System Dynamics
BODIES ORBITS EPHEMERIDES TOOLS PHYSICAL DATA DISCOVERY FAQ SITE MAP
JPL Small-Body Database Browser
Search: [ help ]  
382007 (2010 UD107)
Classification: Inner Main-belt Asteroid          SPK-ID: 2382007
Ephemeris | Orbit Diagram | Orbital Elements | Mission Design | Physical Parameters | Discovery Circumstances ]

[ show orbit diagram ]
Orbital Elements at Epoch 2459000.5 (2020-May-31.0) TDB
Reference: JPL 15 (heliocentric ecliptic J2000)
 Element Value Uncertainty (1-sigma)   Units 
e .03022028905063638 4.216e-08  
a 1.922340775644167 1.4419e-08 au
q 1.864247081750376 8.1141e-08 au
i 18.95088795391153 5.9903e-06 deg
node 286.7873140818841 1.1668e-05 deg
peri 324.8708593920433 9.665e-05 deg
M 343.2102366488612 9.7615e-05 deg
tp 2459045.903158727999
(2020-Jul-15.40315873)
0.00026412 TDB
period 973.5180181066029
2.67
1.0953e-05
2.999e-08
d
yr
n .3697928474915798 4.1605e-09 deg/d
Q 1.980434469537958 1.4854e-08 au
  Orbit Determination Parameters
   # obs. used (total)      228  
   data-arc span      4718 days (12.92 yr)  
   first obs. used      2006-02-01  
   last obs. used      2019-01-02  
   planetary ephem.      DE431  
   SB-pert. ephem.      SB431-N16  
   condition code      0  
   norm. resid. RMS      .47223  
   source      ORB  
   producer      Otto Matic  
   solution date      2019-Jul-14 13:56:37  

Additional Information
 Earth MOID = .855994 au 
 Jupiter MOID = 3.15046 au 
 T_jup = 3.856 
[ show covariance matrix ]

Ephemeris | Orbit Diagram | Orbital Elements | Mission Design | Physical Parameters | Discovery Circumstances ]

Physical Parameter Table
Parameter Symbol Value Units Sigma Reference Notes
absolute magnitude H 17.3   n/a MPO455743  

382007 (2010 UD107)          Discovered 2006-Feb-01 by Mt. Lemmon Survey at Mount Lemmon
Reference: Last Updated: 2013-12-19

Alternate Designations
 2010 UD107 = 2006 CE1 = 2007 MA21 
Ephemeris | Orbit Diagram | Orbital Elements | Mission Design | Physical Parameters | Discovery Circumstances ]
ABOUT SSD CREDITS/AWARDS PRIVACY/COPYRIGHT GLOSSARY LINKS
FirstGov 2020-Jul-13 06:11 UT
(server date/time)  
NASA Home Page
Site Manager:   Ryan S. Park
Webmaster  Alan B. Chamberlin